Simultaneous Nadir Overpasses (SNOs) Predictions

Prediction of SNOs between GOES-15 and TERRA Satellite Orbit:

Table of predicted SNOs for the next 14.0 days since TLE Epoch: 11/2/2019
Index Date Time (GOES-15) GOES-15 Lat,Lon TERRA Lat,Lon Distance(km) Time Diff (sec)
1 11/03/2019 06:50:57 0.26,-128.47 0.83,-125.71 313.55 80
2 11/03/2019 19:12:12 -0.26,-128.45 0.23,-130.87 274.79 80
3 11/05/2019 19:02:40 -0.25,-128.47 -0.36,-127.91 63.81 80
4 11/07/2019 18:50:30 -0.25,-128.49 -1.03,-124.95 402.16 80
5 11/08/2019 07:11:53 0.24,-128.52 -0.09,-130.14 184.31 80
6 11/10/2019 06:57:01 0.24,-128.53 0.52,-127.18 153.47 80
7 11/10/2019 19:20:56 -0.23,-128.50 0.61,-132.33 435.80 80
8 11/12/2019 06:44:50 0.24,-128.54 1.19,-124.23 490.72 80
9 11/12/2019 19:06:05 -0.23,-128.51 -0.06,-129.38 98.64 80
10 11/14/2019 18:56:33 -0.23,-128.51 -0.68,-126.42 237.80 80
11 11/15/2019 07:17:57 0.22,-128.54 -0.43,-131.61 348.47 80




NCC Satellite Simultaneous Nadir Overpasses (SNOs) Prediction Service
